{"data":{"norad_id":65743,"intl_designator":"2025-216K","name":"STARLINK-35319","alt_names":[],"object_type":"PAYLOAD","status":"ACTIVE","operator":null,"country":"US","launch_date":"2025-09-25","launch_site_code":"AFETR","launch_vehicle":null,"mission":null,"orbit_class":"UNKNOWN","rcs_meters":null,"size_class":null,"mass_kg":null,"dimensions":null,"purposes":["comms"],"wikipedia_slug":null,"has_3d_model":false,"image_url":null,"decayed_at":null,"tle_current":{"epoch":"2026-09-20T09:22:28.100928Z","epoch_age_seconds":118225,"freshness":"FRESH","line1":"1 65743U 25216K   26263.39060302  .00012166  00000+0  37062-3 0  9999","line2":"2 65743  53.1572 146.3670 0001179  93.5017 266.6121 15.34401222 56436","mean_motion":15.34401222,"eccentricity":0.0001179,"inclination_deg":53.1572,"raan_deg":146.367,"arg_perigee_deg":93.5017,"mean_anomaly_deg":266.6121,"bstar":0.00037062,"rev_number":5643,"period_min":93.847683340805,"perigee_km":461.89307353189,"apogee_km":463.50614280409,"semimajor_km":6840.836608168,"source":"CELESTRAK","updated_at":"2026-09-21T09:00:35.708524Z"}}}